Sigla Aeroporto Press.
(hPa)
Vento
(°)/(Km/h)
T
(C)
Td
(C)
Umid.
Rel.
(%)
Visibilidade
(Km)
Nebulosidade Condições do Tempo Horário
Medição
SBAA CONCEIÇÃO ARAGUAIA BRASIL 1007 120/9.3 32 23 59 >= 10 - - 2017-11-20 20:00 GMT
SBAF AFONSOS ARPT (MIL) BRASIL 1013 210/7.4 23 21 88 >= 10 Encoberto - 2017-11-20 22:00 GMT
SBAM AMAPA AIRPORT BRASIL 1009 Ventos calmos 31 22 58 >= 10 Parcialmente nublado - 2011-10-13 18:00 GMT
SBAN ANAPOLIS (BRAZ-AFB) BRASIL 1015 350/3.7 23 16 64 >= 10 Nublado - 2017-11-20 22:00 GMT
SBAR ARACAJU/SANTA MARIA BRASIL 1012 80/9.3 25 21 78 >= 10 Parcialmente nublado - 2017-11-20 22:00 GMT
SBAT ALTA FLORESTA BRASIL 1007 150/5.6 29 25 79 >= 10 Parcialmente nublado trovoadas sem precipitaçoes 2017-11-20 20:00 GMT
SBAU ARAÇATUBA BRASIL 1010 120/14.8 - - - >= 10 - - 2017-11-20 08:00 GMT
SBBE BELEM/VAL DE CAES BRASIL 1008 20/20.4 28 23 74 >= 10 Predominantemente claro - 2017-11-20 22:00 GMT
SBBG BAGE/CMDT KRAEMER BRASIL 1010 230/1.9 29 13 37 >= 10 Parcialmente nublado - 2017-11-20 19:00 GMT
SBBH BELO HORIZ/PAMPULHA BRASIL 1014 300/16.7 22 18 78 >= 10 Encoberto trovoadas com chuva leve 2017-11-20 22:00 GMT
SBBI CURITIBA/BACACHERI BRASIL 1015 80/14.8 19 17 88 >= 10 Parcialmente nublado - 2017-11-20 21:00 GMT
SBBQ BARBACENA (CIV/MIL) BRASIL 1018 130/7.4 19 18 93 8.0 Nublado - 2017-11-20 22:00 GMT
SBBR BRASILIA (CIV/MIL) BRASIL 1015 -/3.7 25 17 61 >= 10 Parcialmente nublado - 2017-11-20 22:00 GMT
SBBU BAURU BRASIL 1010 70/11.1 28 22 69 >= 10 Nublado - 2017-11-20 21:00 GMT
SBBV BOA VISTA (CIV/MIL) BRASIL 1006 80/14.8 33 19 43 >= 10 Predominantemente claro - 2017-11-20 22:00 GMT
SBBW BERRA DO GARCAS BRASIL 1008 Ventos calmos 25 24 94 >= 10 Nublado - 2017-11-20 20:00 GMT
SBCB SAO PAULO/CUMBIC AB BRASIL 1011 250/11.1 25 22 83 >= 10 Nublado - 2017-11-20 20:00 GMT
SBCC CACHIMBO BRASIL 1008 240/11.1 24 23 94 >= 10 Predominantemente claro pancadas nas vizinhanças 2017-11-20 20:00 GMT
SBCF BELO HORIZ/TANCREDO BRASIL - 280/9.3 20 19 93 7.0 Nublado trovoadas com chuva leve 2017-11-20 22:00 GMT
SBCG CAMPO GRANDE INTL BRASIL 1009 40/13 25 20 73 >= 10 Predominantemente claro pancadas de chuva leve 2017-11-20 22:00 GMT
SBCI CAROLINA AIRPORT BRASIL 1007 210/5.6 30 22 62 >= 10 Predominantemente claro trovoadas sem precipitaçoes 2017-11-20 20:00 GMT
SBCJ CARAJAS/MARABA BRASIL 1011 Ventos calmos 25 20 73 7.0 Nenhuma nuvem significativa - 2017-11-20 21:30 GMT
SBCO PORTO ALEGRE/CANOAS BRASIL 1010 130/16.7 23 16 64 >= 10 - - 2017-11-20 22:00 GMT
SBCP CAMPOS/BARTOLOMEU BRASIL 1011 240/18.5 23 21 88 >= 10 Encoberto chuva leve 2017-11-20 22:00 GMT
SBCR CORUMBA INTL ARPT BRASIL 1004 100/11.1 31 23 62 >= 10 - - 2017-11-20 22:00 GMT
SBCT CURITIBA/AFONSO PENA BRASIL 1016 100/18.5 18 15 82 >= 10 Nublado - 2017-11-20 22:00 GMT
SBCV CARAVELAS AIRPORT BRASIL 1012 20/18.5 25 22 83 >= 10 - - 2008-10-27 22:00 GMT
SBCY CUIABA/MARECHAL RON BRASIL 1007 40/7.4 27 25 88 >= 10 Parcialmente nublado - 2017-11-20 22:00 GMT
SBCZ CRUZEIRO DO SUL BRASIL 1007 Ventos calmos 27 24 83 >= 10 - - 2017-11-20 22:00 GMT
SBDN PRESIDENTE PRUDENTE BRASIL 1008 100/13 27 18 57 >= 10 Predominantemente claro pancadas nas vizinhanças 2017-11-20 22:00 GMT
SBEG EDUARDO GOMES INTL BRASIL 1006 160/3.7 30 25 74 >= 10 Parcialmente nublado - 2017-11-20 22:00 GMT
SBEK JACAREACANGA BRASIL 1006 290/5.6 26 25 94 >= 10 Encoberto - 2017-11-20 21:00 GMT
SBES SAO PEDRO DA ALDEIA BRASIL 1012 230/13 23 22 94 >= 10 Nublado - 2017-11-20 21:00 GMT
SBFI FOZ DO IGUACU ARPT BRASIL 1007 20/3.7 25 21 78 >= 10 - - 2017-11-20 22:00 GMT
SBFL FLORIANOPOLIS ARPT BRASIL 1013 40/18.5 23 19 78 >= 10 Predominantemente claro - 2017-11-20 22:00 GMT
SBFN FERNANDO DE NORONHA BRASIL 1012 120/22.2 26 22 78 >= 10 Predominantemente claro - 2017-11-20 22:00 GMT
SBFZ FORTALEZA/PINTO MAR BRASIL 1010 60/16.7 27 22 74 >= 10 Parcialmente nublado - 2017-11-20 22:00 GMT
SBGL GALEAO/RIO(CIV/MIL) BRASIL 1012 120/13 24 21 83 >= 10 Encoberto - 2017-11-20 22:00 GMT
SBGO GOIANIA/SANTA GENOV BRASIL 1012 300/9.3 26 17 57 >= 10 Nublado - 2017-11-20 22:00 GMT
SBGP GUARAPUAVA BRASIL 1014 330/14.8 27 21 69 >= 10 Nublado - 2013-01-25 13:00 GMT
SBGR GUARULHOS (CIV/MIL) BRASIL 1016 100/9.3 18 18 100 >= 10 Nublado - 2017-11-20 22:00 GMT
SBGW GUARATINGUETA (MIL) BRASIL 1014 220/5.6 22 20 88 5.0 Encoberto chuva leve e névoa úmida 2017-11-20 22:00 GMT
SBHT ALTAMIRA BRASIL 1006 100/3.7 30 22 62 >= 10 Parcialmente nublado - 2017-11-20 21:00 GMT
SBIC ITACOATIARA BRASIL 1006 60/3.7 31 27 79 >= 10 Predominantemente claro - 2017-11-20 21:00 GMT
SBIH ITAITUBA BRASIL 1004 120/3.7 32 25 66 6.0 Predominantemente claro - 2017-11-20 21:00 GMT
SBIL ILHEUS AIRPORT BRASIL 1012 40/13 26 22 78 >= 10 Parcialmente nublado - 2017-11-20 22:00 GMT
SBIZ IMPERATRIZE BRASIL 1006 140/5.6 35 22 47 >= 10 Predominantemente claro - 2017-11-20 20:00 GMT
SBJF JUIZ FORA/FRANCISCO BRASIL 1022 360/5.6 15 13 87 >= 10 - - 2017-08-08 01:00 GMT
SBJP JOAO PESSOA/PRES CA BRASIL 1012 160/9.3 25 20 73 >= 10 - - 2017-11-20 22:00 GMT
SBJR RIO/JACAREPAGUA BRASIL 1012 200/1.9 23 22 94 >= 10 Encoberto - 2017-11-20 21:00 GMT
SBJV JOINVILLE BRASIL 1013 -/3.7 24 20 78 >= 10 Nublado - 2017-11-20 21:00 GMT
SBKG CAMPINA GRANDE BRASIL 1013 90/24.1 25 16 57 >= 10 - - 2017-11-20 21:00 GMT
SBKP CAMPINAS/VIRACOPOS BRASIL 1013 120/25.9 22 18 78 >= 10 Parcialmente nublado - 2017-11-20 22:00 GMT
SBLB LABREA-IN-AMAZONAS BRASIL 1011 60/33.4 25 23 88 >= 10 Nublado - 2017-11-20 19:00 GMT
SBLN LINS BRASIL 1012 90/18.5 22 21 94 5.0 Nublado trovoadas com chuva leve 2008-01-11 08:00 GMT
SBLO LONDRINA AIRPORT BRASIL 1010 100/7.4 23 18 73 >= 10 Nublado - 2017-11-20 22:00 GMT
SBLP BOM JESUS DA LAPA BRASIL 1008 20/7.4 34 19 41 >= 10 Nublado - 2017-11-20 19:00 GMT
SBLS LAGOA SANTA(CV/MIL) BRASIL 1015 320/11.1 19 17 88 8.0 Nublado chuva leve 2017-11-20 22:00 GMT
SBMA MARABA BRASIL 1007 Ventos calmos 27 24 83 >= 10 - - 2017-11-20 22:00 GMT
SBMD MONTE DOURADO BRASIL 1007 60/14.8 33 20 46 >= 10 Predominantemente claro - 2017-11-20 20:00 GMT
SBME MACAE BRASIL 1012 210/7.4 23 22 94 6.0 Encoberto chuva leve 2017-11-20 22:00 GMT
SBMG MARINGA BRASIL 1008 110/16.7 27 18 57 >= 10 Predominantemente claro - 2017-11-20 21:00 GMT
SBMK MONTES CLAROS BRASIL 1012 100/9.3 28 18 54 >= 10 Parcialmente nublado - 2017-11-20 21:00 GMT
SBMN MANAUS/PONTA PELADA BRASIL 1006 150/5.6 31 23 62 >= 10 Predominantemente claro - 2017-11-20 22:00 GMT
SBMO MACEIO/CAMPO PALMAR BRASIL 1013 90/7.4 24 20 78 >= 10 - - 2017-11-20 22:00 GMT
SBMQ MACAPA INTL AIRPORT BRASIL 1008 60/13 29 22 66 >= 10 - - 2017-11-20 22:00 GMT
SBMS MOCORO/17 ROSADO BRASIL 1008 30/27.8 28 22 69 >= 10 Predominantemente claro - 2017-11-20 21:00 GMT
SBMT MARTE (CIV/MIL) BRASIL 1015 140/13 20 17 82 >= 10 Nublado - 2017-11-20 21:00 GMT
SBMY MANICORE BRASIL 1010 30/7.4 25 23 88 8.0 Nublado trovoadas com chuva leve 2017-11-20 21:00 GMT
SBNT NATAL/AUGUSTO SEVER BRASIL 1012 150/11.1 25 21 78 >= 10 - - 2017-11-20 22:00 GMT
SBOI OIAPOQUE BRASIL 1008 120/9.3 32 22 55 >= 10 Parcialmente nublado - 2017-11-20 20:00 GMT
SBPA PORTO ALEGRE/SALGAD BRASIL 1010 130/18.5 24 16 60 >= 10 - - 2017-11-20 22:00 GMT
SBPB PARNAIBA AIRPORT BRASIL 1008 80/22.2 28 23 74 >= 10 Parcialmente nublado - 2017-11-20 21:45 GMT
SBPC POCOS DE CALDAS BRASIL 1015 330/9.3 27 21 69 >= 10 Parcialmente nublado trovoadas sem precipitaçoes 2017-11-20 19:00 GMT
SBPF PASSO FUNDO/LAURO BRASIL 1011 80/18.5 25 14 50 >= 10 - - 2017-11-20 21:00 GMT
SBPK PELOTAS BRASIL 1011 120/18.5 22 15 64 >= 10 Predominantemente claro - 2017-11-20 20:45 GMT
SBPL PETROLINA AIRPORT BRASIL 1009 100/13 34 14 30 >= 10 - - 2017-11-20 22:00 GMT
SBPN PORTO NACIONAL ARPT BRASIL 1012 300/9.3 28 24 78 >= 10 - - 2015-11-11 11:15 GMT
SBPP PONTA PORA INTL BRASIL 1008 40/7.4 29 18 51 >= 10 Predominantemente claro - 2017-11-20 21:00 GMT
SBPV PORTO VELHO(CV/MIL) BRASIL 1006 250/3.7 26 24 88 >= 10 Predominantemente claro - 2017-11-20 22:00 GMT
SBQU VITORIA DA CONQUIST BRASIL - 360/1.9 - - - >= 10 - - 2008-07-23 03:00 GMT
SBQV VITORIA DA CONQUIST BRASIL 1022 110/18.5 27 11 36 >= 10 Predominantemente claro - 2011-09-12 17:00 GMT
SBRB RIO BRANCO/MEDICI BRASIL 1006 100/1.9 28 22 69 >= 10 Predominantemente claro - 2017-11-20 22:00 GMT
SBRF RECIFE/GUARARAPES BRASIL 1012 100/11.1 26 21 74 >= 10 Predominantemente claro - 2017-11-20 22:00 GMT
SBRJ SANTOS DUMONT/RIO BRASIL - 170/22.2 23 22 94 5.0 Encoberto chuvisco leve e névoa úmida 2017-11-20 22:00 GMT
SBRP LEITE LOPES/RIBEIR& BRASIL 1010 120/11.1 26 19 65 >= 10 Predominantemente claro - 2017-11-20 22:00 GMT
SBSC SANTA CRUZ (MIL) BRASIL 1013 200/7.4 22 22 100 5.0 Encoberto chuva leve e névoa úmida 2017-11-20 22:00 GMT
SBSJ SAO JOSE DOS CAMPO& BRASIL 1015 130/13 20 17 82 >= 10 Encoberto - 2017-11-20 22:00 GMT
SBSL SAO LUIS/MARECHAL BRASIL 1008 30/20.4 27 23 78 >= 10 Predominantemente claro - 2017-11-20 22:00 GMT
SBSM SANTA MARIA(CV/MIL) BRASIL 1008 140/11.1 26 12 41 >= 10 - - 2017-11-20 22:00 GMT
SBSN SANTAREM INTL ARPT BRASIL 1006 80/13 31 21 55 >= 10 - - 2017-11-20 22:00 GMT
SBSP SAO PAULO/CONGONHAS BRASIL 1016 130/20.4 18 16 88 >= 10 Encoberto - 2017-11-20 22:00 GMT
SBST SANTOS (BRAZ-AFB) BRASIL 1013 140/5.6 21 20 94 5.0 Encoberto névoa úmida 2017-11-20 21:00 GMT
SBSV SALVADOR/DOIS JULHO BRASIL 1012 60/18.5 26 22 78 >= 10 - - 2017-11-20 22:00 GMT
SBSY SANTA ISABEL MORRO BRASIL 1011 170/11.1 26 20 69 >= 10 - - 2017-11-20 21:00 GMT
SBTA TAUBATE BRASIL 1013 170/9.3 22 17 73 >= 103.0 ao Leste Encoberto - 2017-11-20 21:00 GMT
SBTC TAPURUCUARA BRASIL 1011 60/18.5 28 24 78 >= 10 Predominantemente claro - 2017-11-20 20:00 GMT
SBTE TERESINA AIRPORT BRASIL 1006 300/3.7 34 17 36 >= 10 - - 2017-11-20 22:00 GMT
SBTF TEFE BRASIL 1005 140/11.1 26 23 83 >= 10 - - 2017-11-20 22:00 GMT
SBTK TARAUACA BRASIL 1006 180/5.6 31 25 70 >= 10 Parcialmente nublado - 2017-11-20 21:00 GMT
SBTT TABATINGA INTL ARPT BRASIL 1006 Ventos calmos 29 25 79 >= 10 Parcialmente nublado - 2017-11-20 22:00 GMT
SBTU TUCURUI BRASIL 1008 - - - - >= 10 Predominantemente claro - 2017-11-20 20:00 GMT
SBUA SAO GABRIEL CACHOEI BRASIL 1005 30/22.2 27 23 78 >= 10 Predominantemente claro chuva leve 2017-11-20 20:00 GMT
SBUF PAULO AFONSO BRASIL 1009 110/18.5 37 14 25 >= 10 Predominantemente claro - 2017-11-20 19:00 GMT
SBUG URUGUAIANA/RUBEM BRASIL 1006 60/11.1 31 9 25 >= 10 - - 2017-11-20 21:00 GMT
SBUL UBERLANDIA BRASIL 1013 290/9.3 27 16 51 >= 10 Predominantemente claro - 2017-11-20 21:00 GMT
SBUP URUBUPUNGA/CASTILHO BRASIL 1011 270/16.7 25 20 73 >= 10 Encoberto trovoadas sem precipitaçoes 2007-11-07 22:00 GMT
SBUR UBERABA BRASIL 1012 10/5.6 22 20 88 >= 10 Nublado pancadas nas vizinhanças 2017-11-20 21:00 GMT
SBVH VILHENA BRASIL 1009 300/7.4 23 22 94 >= 10 Nublado - 2017-11-20 22:00 GMT
SBVT VITORIA/GOIABEIRAS BRASIL 1011 40/25.9 26 24 88 >= 10 Parcialmente nublado chuva leve 2017-11-20 22:00 GMT
SBYA IAUARETE (PRIVATE) BRASIL 1008 230/5.6 31 23 62 >= 10 Parcialmente nublado - 2015-11-06 19:00 GMT
SBYS PIRASSUNUNGA/CAMPO BRASIL 1012 180/11.1 25 21 78 >= 10 Parcialmente nublado - 2017-11-20 22:00 GMT